EWG2GA EDDM-EDDL

Flight info

Callsign EWG2GA
Flight time 1h 8m
Altitude 32000
Route GIVMI1N/26R GIVMI Y101 INBED DCT REKDI DCT LOHRE Z850 ADEMI T854 DOMUX DOMUX1A
Aircraft A320/M-SDE2E3FGIJ1RWXYZ/HB1

Departure

Time 2026-05-07 13:03
Airport Munich Airport (EDDM)

Arrival

Time 2026-05-07 14:11
Airport Düsseldorf Airport (EDDL)
Time Latitude Longitude Altitude Speed Heading
2026-05-07 12:42 48.35840 11.79238 1485 ft 0 kts 263°
2026-05-07 12:51 48.35842 11.79251 1471 ft 4 kts 263°
2026-05-07 12:51 48.35845 11.79291 1473 ft 4 kts 263°
2026-05-07 12:51 48.35847 11.79324 1475 ft 3 kts 264°
2026-05-07 12:51 48.35847 11.79362 1473 ft 4 kts 292°
2026-05-07 12:52 48.35832 11.79388 1475 ft 4 kts 350°
2026-05-07 12:52 48.35810 11.79392 1474 ft 1 kts 353°
2026-05-07 12:54 48.35821 11.79423 1479 ft 9 kts 64°
2026-05-07 12:55 48.35862 11.79511 1481 ft 10 kts 24°
2026-05-07 12:55 48.35954 11.79503 1473 ft 15 kts 353°
2026-05-07 12:55 48.36031 11.79490 1480 ft 11 kts 353°
2026-05-07 12:55 48.36040 11.79488 1485 ft 0 kts 353°
2026-05-07 12:56 48.36052 11.79486 1485 ft 5 kts 353°
2026-05-07 12:56 48.36089 11.79480 1483 ft 11 kts 353°
2026-05-07 12:56 48.36201 11.79477 1480 ft 14 kts 28°
2026-05-07 12:56 48.36220 11.79561 1485 ft 14 kts 84°
2026-05-07 12:57 48.36236 11.79760 1475 ft 24 kts 83°
2026-05-07 12:57 48.36256 11.80022 1485 ft 25 kts 83°
2026-05-07 12:57 48.36276 11.80287 1485 ft 26 kts 83°
2026-05-07 12:57 48.36297 11.80560 1485 ft 27 kts 83°
2026-05-07 12:58 48.36320 11.80846 1485 ft 28 kts 83°
2026-05-07 12:58 48.36342 11.81144 1485 ft 28 kts 83°
2026-05-07 12:58 48.36360 11.81378 1485 ft 21 kts 83°
2026-05-07 12:58 48.36376 11.81585 1476 ft 19 kts 83°
2026-05-07 12:59 48.36391 11.81771 1476 ft 17 kts 83°
2026-05-07 12:59 48.36398 11.81909 1485 ft 10 kts 100°
2026-05-07 12:59 48.36414 11.81996 1477 ft 9 kts 35°
2026-05-07 12:59 48.36476 11.81998 1479 ft 9 kts 353°
2026-05-07 13:00 48.36494 11.81995 1485 ft 1 kts 353°
2026-05-07 13:00 48.36516 11.81991 1473 ft 6 kts 353°
2026-05-07 13:00 48.36559 11.81983 1485 ft 0 kts 353°
2026-05-07 13:01 48.36560 11.81983 1485 ft 2 kts 353°
2026-05-07 13:01 48.36612 11.81974 1485 ft 11 kts 353°
2026-05-07 13:02 48.36674 11.81918 1476 ft 12 kts 272°
2026-05-07 13:02 48.36669 11.81858 1478 ft 0 kts 263°
2026-05-07 13:02 48.36668 11.81848 1481 ft 6 kts 263°
2026-05-07 13:02 48.36640 11.81484 1475 ft 70 kts 263°
2026-05-07 13:03 48.36559 11.80430 1483 ft 130 kts 263°
2026-05-07 13:03 48.36433 11.78874 1684 ft 156 kts 266°
2026-05-07 13:03 48.36325 11.77254 2358 ft 156 kts 266°
2026-05-07 13:03 48.36214 11.75630 3058 ft 156 kts 265°
2026-05-07 13:04 48.36093 11.74007 3696 ft 156 kts 266°
2026-05-07 13:04 48.35969 11.72401 4289 ft 157 kts 265°
2026-05-07 13:04 48.35839 11.70757 4810 ft 163 kts 264°
2026-05-07 13:04 48.35707 11.68946 5064 ft 185 kts 269°
2026-05-07 13:05 48.36069 11.66977 5301 ft 210 kts 300°
2026-05-07 13:05 48.36890 11.65000 5653 ft 235 kts 300°
2026-05-07 13:05 48.37794 11.62820 6153 ft 254 kts 300°
2026-05-07 13:05 48.38740 11.60527 6945 ft 260 kts 300°
2026-05-07 13:06 48.39682 11.58224 7779 ft 263 kts 300°
2026-05-07 13:06 48.40644 11.55863 8638 ft 267 kts 300°
2026-05-07 13:06 48.41621 11.53460 9513 ft 270 kts 300°
2026-05-07 13:06 48.42677 11.51096 10303 ft 277 kts 309°
2026-05-07 13:07 48.44296 11.49304 10576 ft 306 kts 334°
2026-05-07 13:07 48.46396 11.48200 10821 ft 330 kts 339°
2026-05-07 13:07 48.48612 11.47120 11398 ft 339 kts 339°
2026-05-07 13:07 48.50875 11.46031 12117 ft 344 kts 339°
2026-05-07 13:08 48.53163 11.44926 12865 ft 347 kts 339°
2026-05-07 13:08 48.55473 11.43795 13608 ft 351 kts 339°
2026-05-07 13:08 48.57819 11.42633 14284 ft 354 kts 339°
2026-05-07 13:08 48.60165 11.41463 14934 ft 358 kts 339°
2026-05-07 13:09 48.62512 11.40288 15584 ft 362 kts 338°
2026-05-07 13:09 48.64920 11.39081 16218 ft 367 kts 338°
2026-05-07 13:09 48.67354 11.37861 16828 ft 371 kts 338°
2026-05-07 13:09 48.69778 11.36503 17442 ft 372 kts 332°
2026-05-07 13:10 48.72021 11.34561 18079 ft 372 kts 323°
2026-05-07 13:10 48.74179 11.32368 18656 ft 375 kts 323°
2026-05-07 13:10 48.76334 11.30187 19233 ft 377 kts 323°
2026-05-07 13:10 48.78524 11.27967 19802 ft 380 kts 324°
2026-05-07 13:11 48.80728 11.25731 20362 ft 382 kts 324°
2026-05-07 13:11 48.82952 11.23481 20948 ft 385 kts 325°
2026-05-07 13:11 48.85339 11.21554 21509 ft 391 kts 335°
2026-05-07 13:11 48.87925 11.20173 22086 ft 395 kts 339°
2026-05-07 13:12 48.90548 11.18857 22638 ft 398 kts 339°
2026-05-07 13:12 48.93187 11.17526 23155 ft 401 kts 339°
2026-05-07 13:12 48.95842 11.16179 23633 ft 403 kts 339°
2026-05-07 13:12 48.98511 11.14819 24044 ft 406 kts 339°
2026-05-07 13:13 49.01178 11.13457 24465 ft 407 kts 339°
2026-05-07 13:13 49.03872 11.12083 24843 ft 409 kts 339°
2026-05-07 13:13 49.06580 11.10700 25244 ft 411 kts 339°
2026-05-07 13:13 49.09304 11.09306 25619 ft 413 kts 339°
2026-05-07 13:14 49.12029 11.07907 26025 ft 414 kts 339°
2026-05-07 13:14 49.14732 11.06523 26406 ft 415 kts 339°
2026-05-07 13:14 49.17473 11.05125 26771 ft 417 kts 339°
2026-05-07 13:14 49.20243 11.03715 27143 ft 419 kts 339°
2026-05-07 13:15 49.23008 11.02302 27503 ft 421 kts 340°
2026-05-07 13:15 49.25796 11.00869 27813 ft 423 kts 340°
2026-05-07 13:15 49.28592 10.99427 28132 ft 425 kts 340°
2026-05-07 13:15 49.31399 10.97977 28452 ft 427 kts 340°
2026-05-07 13:16 49.34222 10.96497 28758 ft 428 kts 337°
2026-05-07 13:16 49.36913 10.94560 29044 ft 428 kts 328°
2026-05-07 13:16 49.39380 10.91978 29332 ft 429 kts 320°
2026-05-07 13:16 49.41543 10.88836 29610 ft 429 kts 311°
2026-05-07 13:17 49.43453 10.85281 29875 ft 431 kts 308°
2026-05-07 13:17 49.45340 10.81701 30128 ft 432 kts 308°
2026-05-07 13:17 49.47214 10.78146 30327 ft 434 kts 309°
2026-05-07 13:17 49.49125 10.74522 30514 ft 437 kts 309°
2026-05-07 13:18 49.51045 10.70879 30756 ft 438 kts 309°
2026-05-07 13:18 49.52961 10.67239 31049 ft 438 kts 309°
2026-05-07 13:18 49.54872 10.63594 31355 ft 437 kts 309°
2026-05-07 13:18 49.56780 10.59946 31657 ft 437 kts 308°
2026-05-07 13:19 49.58690 10.56292 31929 ft 438 kts 308°
2026-05-07 13:19 49.60599 10.52642 32026 ft 436 kts 308°
2026-05-07 13:19 49.64383 10.45382 32042 ft 433 kts 308°
2026-05-07 13:20 49.67984 10.38014 32036 ft 432 kts 304°
2026-05-07 13:20 49.71339 10.30287 32031 ft 433 kts 303°
2026-05-07 13:21 49.74653 10.22506 32037 ft 435 kts 304°
2026-05-07 13:21 49.78058 10.14684 32017 ft 439 kts 304°
2026-05-07 13:22 49.81498 10.06857 32010 ft 440 kts 304°
2026-05-07 13:22 49.84921 9.99070 32007 ft 440 kts 304°
2026-05-07 13:23 49.88345 9.91240 32046 ft 437 kts 303°
2026-05-07 13:23 49.91733 9.83427 32041 ft 436 kts 303°
2026-05-07 13:24 49.95117 9.75594 32041 ft 435 kts 303°
2026-05-07 13:24 49.98484 9.67781 32043 ft 435 kts 303°
2026-05-07 13:25 50.01825 9.60008 32030 ft 434 kts 303°
2026-05-07 13:25 50.05185 9.52174 32022 ft 435 kts 304°
2026-05-07 13:26 50.09323 9.45322 32022 ft 436 kts 321°
2026-05-07 13:26 50.14057 9.39390 32016 ft 436 kts 320°
2026-05-07 13:27 50.18749 9.33453 32023 ft 437 kts 320°
2026-05-07 13:27 50.23460 9.27467 32020 ft 436 kts 320°
2026-05-07 13:28 50.28170 9.21450 32012 ft 436 kts 320°
2026-05-07 13:28 50.32854 9.15459 32021 ft 436 kts 320°
2026-05-07 13:29 50.37562 9.09443 32020 ft 436 kts 320°
2026-05-07 13:29 50.42279 9.03426 32019 ft 436 kts 320°
2026-05-07 13:30 50.46984 8.97386 32024 ft 436 kts 320°
2026-05-07 13:30 50.51648 8.91369 32025 ft 436 kts 320°
2026-05-07 13:31 50.56384 8.85412 32023 ft 437 kts 322°
2026-05-07 13:31 50.61246 8.79631 31689 ft 438 kts 322°
2026-05-07 13:32 50.63686 8.76753 31435 ft 439 kts 322°
2026-05-07 13:32 50.66125 8.73866 31180 ft 439 kts 322°
2026-05-07 13:32 50.68559 8.70964 30927 ft 439 kts 322°
2026-05-07 13:32 50.70991 8.68045 30676 ft 439 kts 322°
2026-05-07 13:33 50.73421 8.65104 30428 ft 440 kts 322°
2026-05-07 13:33 50.75849 8.62155 30181 ft 440 kts 322°
2026-05-07 13:33 50.78279 8.59200 29909 ft 441 kts 322°
2026-05-07 13:33 50.80708 8.56246 29616 ft 439 kts 322°
2026-05-07 13:34 50.83119 8.53313 29327 ft 437 kts 321°
2026-05-07 13:34 50.87923 8.47462 28761 ft 432 kts 321°
2026-05-07 13:34 50.90269 8.44604 28484 ft 430 kts 322°
2026-05-07 13:35 50.92635 8.41714 28200 ft 428 kts 322°
2026-05-07 13:35 50.94991 8.38836 27928 ft 427 kts 322°
2026-05-07 13:35 50.97341 8.35957 27656 ft 425 kts 321°
2026-05-07 13:35 50.99675 8.33090 27390 ft 424 kts 321°
2026-05-07 13:36 51.02066 8.30328 27124 ft 423 kts 327°
2026-05-07 13:36 51.04625 8.28011 26863 ft 422 kts 330°
2026-05-07 13:36 51.07155 8.25772 26600 ft 421 kts 330°
2026-05-07 13:36 51.09705 8.23505 26349 ft 419 kts 329°
2026-05-07 13:37 51.12249 8.21235 26094 ft 418 kts 330°
2026-05-07 13:37 51.14784 8.18973 25835 ft 416 kts 330°
2026-05-07 13:37 51.17293 8.16734 25278 ft 412 kts 330°
2026-05-07 13:37 51.19786 8.14509 24681 ft 409 kts 330°
2026-05-07 13:38 51.22257 8.12295 24093 ft 405 kts 330°
2026-05-07 13:38 51.24712 8.10092 23530 ft 403 kts 330°
2026-05-07 13:38 51.27151 8.07910 22937 ft 399 kts 329°
2026-05-07 13:38 51.29559 8.05754 22441 ft 394 kts 330°
2026-05-07 13:39 51.31908 8.03643 21939 ft 391 kts 329°
2026-05-07 13:39 51.34262 8.01519 21487 ft 386 kts 329°
2026-05-07 13:39 51.36591 7.99411 21027 ft 382 kts 329°
2026-05-07 13:39 51.38902 7.97322 20559 ft 379 kts 328°
2026-05-07 13:40 51.41188 7.95258 20100 ft 376 kts 329°
2026-05-07 13:40 51.43381 7.93001 19557 ft 373 kts 318°
2026-05-07 13:40 51.45104 7.89926 19021 ft 369 kts 302°
2026-05-07 13:40 51.46213 7.86243 18469 ft 367 kts 286°
2026-05-07 13:41 51.46641 7.82276 17896 ft 365 kts 271°
2026-05-07 13:41 51.46382 7.78245 17337 ft 363 kts 256°
2026-05-07 13:41 51.45705 7.74353 16787 ft 362 kts 255°
2026-05-07 13:41 51.45015 7.70483 16257 ft 360 kts 254°
2026-05-07 13:42 51.44325 7.66635 15775 ft 357 kts 254°
2026-05-07 13:42 51.43637 7.62824 15285 ft 355 kts 254°
2026-05-07 13:42 51.43181 7.60312 14957 ft 353 kts 254°
2026-05-07 13:42 51.42494 7.56537 14462 ft 351 kts 255°
2026-05-07 13:43 51.41984 7.51450 13871 ft 347 kts 269°
2026-05-07 13:43 51.42015 7.47593 13557 ft 346 kts 271°
2026-05-07 13:43 51.42038 7.44995 13340 ft 344 kts 271°
2026-05-07 13:43 51.42064 7.41172 13039 ft 343 kts 271°
2026-05-07 13:44 51.42084 7.37368 12733 ft 340 kts 271°
2026-05-07 13:44 51.42100 7.33581 12432 ft 339 kts 271°
2026-05-07 13:44 51.42112 7.29855 12137 ft 339 kts 271°
2026-05-07 13:44 51.42125 7.26077 11829 ft 338 kts 270°
2026-05-07 13:45 51.42100 7.22312 11528 ft 337 kts 265°
2026-05-07 13:45 51.41644 7.18635 11226 ft 336 kts 252°
2026-05-07 13:45 51.40669 7.15251 10927 ft 335 kts 238°
2026-05-07 13:45 51.39240 7.12340 10640 ft 331 kts 226°
2026-05-07 13:46 51.37661 7.09749 10502 ft 318 kts 226°
2026-05-07 13:46 51.36152 7.07259 10374 ft 305 kts 226°
2026-05-07 13:46 51.34702 7.04861 10232 ft 295 kts 226°
2026-05-07 13:46 51.33291 7.02529 10026 ft 287 kts 226°
2026-05-07 13:47 51.31902 7.00242 9959 ft 288 kts 226°
2026-05-07 13:47 51.30503 6.97940 9550 ft 288 kts 226°
2026-05-07 13:47 51.29116 6.95660 9168 ft 286 kts 226°
2026-05-07 13:47 51.27737 6.93395 8810 ft 282 kts 226°
2026-05-07 13:48 51.26373 6.91153 8428 ft 280 kts 226°
2026-05-07 13:48 51.25029 6.88952 8034 ft 279 kts 226°
2026-05-07 13:48 51.23681 6.86750 7784 ft 272 kts 226°
2026-05-07 13:48 51.22383 6.84633 7652 ft 260 kts 226°
2026-05-07 13:49 51.21147 6.82612 7523 ft 250 kts 226°
2026-05-07 13:49 51.20035 6.80535 7266 ft 244 kts 234°
2026-05-07 13:49 51.19014 6.78377 6924 ft 243 kts 234°
2026-05-07 13:49 51.17991 6.76231 6575 ft 242 kts 233°
2026-05-07 13:50 51.16986 6.74129 6223 ft 241 kts 234°
2026-05-07 13:50 51.15969 6.72007 5852 ft 240 kts 233°
2026-05-07 13:50 51.14959 6.69897 5511 ft 239 kts 234°
2026-05-07 13:50 51.13953 6.67798 5151 ft 239 kts 234°
2026-05-07 13:51 51.12947 6.65698 4805 ft 237 kts 235°
2026-05-07 13:51 51.11941 6.63598 4416 ft 237 kts 234°
2026-05-07 13:51 51.10941 6.61518 4059 ft 236 kts 234°
2026-05-07 13:51 51.09947 6.59452 3728 ft 234 kts 234°
2026-05-07 13:52 51.08958 6.57397 3392 ft 233 kts 234°
2026-05-07 13:52 51.08162 6.55221 3085 ft 229 kts 257°
2026-05-07 13:52 51.08205 6.52803 2995 ft 215 kts 294°
2026-05-07 13:52 51.09058 6.50903 3002 ft 213 kts 319°
2026-05-07 13:53 51.10165 6.49411 2995 ft 201 kts 322°
2026-05-07 13:53 51.11306 6.48296 2989 ft 187 kts 348°
2026-05-07 13:53 51.12581 6.48302 3052 ft 184 kts
2026-05-07 13:53 51.13830 6.48706 3010 ft 182 kts 12°
2026-05-07 13:54 51.15044 6.49239 3000 ft 182 kts 23°
2026-05-07 13:54 51.16063 6.50410 3010 ft 183 kts 47°
2026-05-07 13:54 51.16846 6.52009 3005 ft 182 kts 51°
2026-05-07 13:54 51.17617 6.53614 3012 ft 182 kts 51°
2026-05-07 13:55 51.18378 6.55199 3012 ft 177 kts 50°
2026-05-07 13:55 51.19119 6.56740 2975 ft 175 kts 51°
2026-05-07 13:55 51.19855 6.58272 2805 ft 173 kts 51°
2026-05-07 13:55 51.20586 6.59792 2599 ft 171 kts 50°
2026-05-07 13:56 51.21310 6.61301 2369 ft 171 kts 51°
2026-05-07 13:56 51.22022 6.62785 2146 ft 171 kts 51°
2026-05-07 13:56 51.22741 6.64286 1906 ft 169 kts 51°
2026-05-07 13:56 51.23456 6.65777 1676 ft 165 kts 51°
2026-05-07 13:57 51.24125 6.67176 1456 ft 152 kts 51°
2026-05-07 13:57 51.24755 6.68492 1277 ft 148 kts 52°
2026-05-07 13:57 51.25371 6.69783 1068 ft 144 kts 51°
2026-05-07 13:57 51.25981 6.71050 863 ft 143 kts 48°
2026-05-07 13:58 51.26581 6.72303 671 ft 141 kts 50°
2026-05-07 13:58 51.27167 6.73545 472 ft 140 kts 51°
2026-05-07 13:58 51.27770 6.74783 292 ft 141 kts 51°
2026-05-07 13:58 51.28361 6.76042 328 ft 148 kts 52°
2026-05-07 13:59 51.28979 6.77402 1133 ft 154 kts 50°
2026-05-07 13:59 51.29636 6.78881 1880 ft 172 kts 52°
2026-05-07 13:59 51.30385 6.80524 2240 ft 194 kts 52°
2026-05-07 13:59 51.31166 6.82385 2699 ft 212 kts 67°
2026-05-07 14:00 51.31365 6.84764 2966 ft 222 kts 98°
2026-05-07 14:00 51.30712 6.86975 2999 ft 224 kts 131°
2026-05-07 14:00 51.29534 6.88605 3011 ft 224 kts 142°
2026-05-07 14:00 51.28155 6.89763 3006 ft 227 kts 166°
2026-05-07 14:01 51.26573 6.89784 3016 ft 233 kts 197°
2026-05-07 14:01 51.25173 6.88540 3005 ft 233 kts 224°
2026-05-07 14:01 51.23974 6.86757 3010 ft 236 kts 225°
2026-05-07 14:01 51.22779 6.84964 3008 ft 236 kts 225°
2026-05-07 14:02 51.21587 6.83178 3013 ft 235 kts 225°
2026-05-07 14:02 51.20426 6.81343 3001 ft 234 kts 234°
2026-05-07 14:02 51.19449 6.79284 3010 ft 233 kts 234°
2026-05-07 14:02 51.18471 6.77228 3007 ft 233 kts 235°
2026-05-07 14:03 51.17486 6.75167 2999 ft 234 kts 235°
2026-05-07 14:03 51.16499 6.73103 3009 ft 235 kts 235°
2026-05-07 14:03 51.15509 6.71034 3014 ft 235 kts 234°
2026-05-07 14:03 51.14530 6.68990 3012 ft 234 kts 234°
2026-05-07 14:04 51.13558 6.66963 2999 ft 223 kts 234°
2026-05-07 14:04 51.12621 6.65007 3005 ft 221 kts 234°
2026-05-07 14:04 51.11684 6.63056 2996 ft 222 kts 233°
2026-05-07 14:04 51.10744 6.61098 3004 ft 223 kts 233°
2026-05-07 14:05 51.09854 6.59144 2992 ft 209 kts 246°
2026-05-07 14:05 51.09617 6.57036 2991 ft 192 kts 284°
2026-05-07 14:05 51.10176 6.55192 3021 ft 185 kts 308°
2026-05-07 14:05 51.10984 6.53615 3048 ft 183 kts 313°
2026-05-07 14:06 51.11913 6.52249 3014 ft 182 kts 321°
2026-05-07 14:06 51.12955 6.51119 2997 ft 181 kts 341°
2026-05-07 14:06 51.14193 6.51038 3021 ft 181 kts
2026-05-07 14:06 51.15430 6.51445 3015 ft 181 kts 13°
2026-05-07 14:07 51.16618 6.52106 3005 ft 181 kts 29°
2026-05-07 14:07 51.17540 6.53448 3009 ft 182 kts 51°
2026-05-07 14:07 51.18315 6.55064 3003 ft 183 kts 51°
2026-05-07 14:07 51.19080 6.56657 2983 ft 184 kts 51°
2026-05-07 14:08 51.19855 6.58271 2805 ft 182 kts 50°
2026-05-07 14:08 51.20624 6.59871 2584 ft 182 kts 51°
2026-05-07 14:08 51.21390 6.61469 2355 ft 181 kts 51°
2026-05-07 14:08 51.22157 6.63066 2099 ft 180 kts 51°
2026-05-07 14:09 51.22890 6.64597 1862 ft 165 kts 51°
2026-05-07 14:09 51.23562 6.66000 1645 ft 153 kts 51°
2026-05-07 14:09 51.24190 6.67312 1439 ft 146 kts 51°
2026-05-07 14:09 51.24807 6.68601 1261 ft 146 kts 49°
2026-05-07 14:10 51.25421 6.69879 1027 ft 144 kts 50°
2026-05-07 14:10 51.26021 6.71127 839 ft 141 kts 49°
2026-05-07 14:10 51.26618 6.72358 639 ft 142 kts 50°
2026-05-07 14:10 51.27209 6.73615 459 ft 141 kts 51°
2026-05-07 14:11 51.27807 6.74865 296 ft 140 kts 51°
2026-05-07 14:11 51.28396 6.76110 134 ft 137 kts 51°
2026-05-07 14:11 51.28864 6.77093 127 ft 72 kts 53°
2026-05-07 14:11 51.29005 6.77393 125 ft 18 kts 59°
2026-05-07 14:12 51.28997 6.77576 127 ft 19 kts 136°
2026-05-07 14:12 51.28943 6.77644 129 ft 7 kts 146°
2026-05-07 14:12 51.28899 6.77634 129 ft 8 kts 218°
2026-05-07 14:12 51.28852 6.77537 128 ft 11 kts 232°
2026-05-07 14:13 51.28807 6.77443 128 ft 10 kts 232°
2026-05-07 14:13 51.28767 6.77358 128 ft 9 kts 233°
2026-05-07 14:13 51.28722 6.77265 127 ft 14 kts 232°
2026-05-07 14:13 51.28648 6.77109 127 ft 21 kts 233°
2026-05-07 14:14 51.28562 6.76929 128 ft 20 kts 233°
2026-05-07 14:14 51.28478 6.76751 122 ft 20 kts 232°
2026-05-07 14:14 51.28401 6.76591 123 ft 15 kts 232°
2026-05-07 14:14 51.28346 6.76486 125 ft 9 kts 212°
2026-05-07 14:15 51.28289 6.76504 126 ft 9 kts 172°
2026-05-07 14:15 51.28238 6.76446 127 ft 9 kts 215°
2026-05-07 14:15 51.28185 6.76431 127 ft 7 kts 186°
2026-05-07 14:15 51.28146 6.76424 127 ft 6 kts 186°
2026-05-07 14:16 51.28116 6.76440 124 ft 4 kts 121°
2026-05-07 14:16 51.28112 6.76482 126 ft 7 kts 94°
2026-05-07 14:16 51.28109 6.76532 128 ft 2 kts 96°
2026-05-07 14:16 51.28109 6.76538 128 ft 0 kts 96°